Date String (YYYY-MM-DD hh:mm:ss) UTC,Instrument flags,absolute air pressure of the measurement (hPa),sample flow rate (lpm),inlet stack bypass flow (lpm),air temperature of the measurement (°C),ambient temperature measured by the external sensor (°C),aerosol sample conditioner tube jacket temperature (°C),OPC LED temperature (°C),internal box temperature (°C),relative humidity of the measurement (%),span deviation,mass concentration of particles derived from Lorenz-Mie calculation of OPC scattering (μg/m³),mass concentration of particles derived from Lorenz-Mie calculation of OPC scattering (μg/m³),mass concentration of particles derived from Lorenz-Mie calculation of OPC scattering (μg/m³)
DateTimeUTC,F1_M11,P_M11,Q1_M11,Q2_M11,T1_M11,T2_M11,T3_M11,T4_M11,T5_M11,U1_M11,ZSPAN_M11,X0_M11,X2_M11,X1_M11
2023-09-08 06:00:00,SystemResetWarning,0835.7,5.00,000.00,028.2,024.7,000.0,036.5,029.4,15.3,0000.0,0020.41,0003.96,0001.88
2023-09-08 06:01:00,SystemResetWarning,0835.7,5.02,000.00,028.1,024.6,000.0,036.4,029.4,15.2,0000.0,0019.62,0003.95,0001.88
2023-09-08 06:02:00,SystemResetWarning,0835.8,5.00,000.00,028.0,024.8,000.0,036.4,029.2,15.2,0000.0,0019.12,0003.91,0001.90
2023-09-08 06:03:00,SystemResetWarning,0835.7,5.00,000.00,028.0,025.1,000.0,036.4,029.3,15.2,0000.0,0019.82,0003.88,0001.91
2023-09-08 06:04:00,SystemResetWarning,0835.7,5.00,000.00,028.0,025.4,000.0,036.4,029.3,15.3,0000.0,0020.37,0003.87,0001.93
2023-09-08 06:05:00,SystemResetWarning,0835.7,5.00,000.00,028.0,025.7,000.0,036.4,029.4,15.4,0000.0,0020.47,0003.87,0001.91
2023-09-08 06:06:00,SystemResetWarning,0835.7,5.00,000.00,028.0,026.0,000.0,036.4,029.5,15.3,0000.0,0021.16,0003.89,0001.91
2023-09-08 06:07:00,SystemResetWarning,0835.7,5.00,000.00,028.0,026.3,000.0,036.4,029.5,15.3,0000.0,0020.89,0003.87,0001.91
2023-09-08 06:08:00,SystemResetWarning,0835.7,5.00,000.00,028.0,026.4,000.0,036.4,029.6,15.2,0000.0,0020.41,0003.83,0001.89
2023-09-08 06:09:00,SystemResetWarning,0835.8,5.00,000.00,028.1,026.6,000.0,036.4,029.7,15.5,0000.0,0020.30,0003.79,0001.89
2023-09-08 06:10:00,SystemResetWarning,0835.8,5.00,000.00,028.1,026.8,000.0,036.5,029.7,15.6,0000.0,0019.52,0003.74,0001.87
2023-09-08 06:11:00,SystemResetWarning,0835.8,5.00,000.00,028.1,026.9,000.0,036.5,029.7,15.5,0000.0,0018.40,0003.74,0001.88
2023-09-08 06:12:00,SystemResetWarning,0835.8,5.00,000.00,028.2,027.0,000.0,036.5,029.8,15.6,0000.0,0017.12,0003.77,0001.89
2023-09-08 06:13:00,SystemResetWarning,0835.8,4.99,000.00,028.2,027.0,000.0,036.5,029.8,15.4,0000.0,0016.82,0003.80,0001.86
2023-09-08 06:14:00,SystemResetWarning,0835.8,5.00,000.00,028.2,027.1,000.0,036.5,029.9,15.3,0000.0,0015.65,0003.80,0001.85
2023-09-08 06:15:00,SystemResetWarning,0835.8,5.00,000.00,028.2,027.2,000.0,036.6,029.9,15.1,0000.0,0014.40,0003.78,0001.84
2023-09-08 06:16:00,SystemResetWarning,0835.8,5.00,000.00,028.3,027.2,000.0,036.6,029.9,14.9,0000.0,0014.28,0003.77,0001.83
2023-09-08 06:17:00,SystemResetWarning,0835.8,5.00,000.00,028.3,027.3,000.0,036.6,030.0,14.8,0000.0,0013.67,0003.75,0001.82
2023-09-08 06:18:00,SystemResetWarning,0835.8,5.00,000.00,028.3,026.6,000.0,036.6,029.8,14.8,0000.0,0014.90,0003.74,0001.83
2023-09-08 06:19:00,SystemResetWarning,0835.8,5.01,000.00,028.2,024.9,000.0,036.5,029.5,14.8,0000.0,0014.96,0003.76,0001.84
2023-09-08 06:20:00,SystemResetWarning,0835.8,5.01,000.00,028.1,024.5,000.0,036.5,029.4,15.0,0000.0,0013.47,0003.77,0001.83
2023-09-08 06:21:00,SystemResetWarning,0835.8,5.00,000.00,028.0,024.7,000.0,036.5,029.2,15.1,0000.0,0013.67,0003.80,0001.86
2023-09-08 06:22:00,SystemResetWarning,0835.8,4.99,000.00,028.0,025.0,000.0,036.5,029.3,15.1,0000.0,0013.43,0003.77,0001.86
2023-09-08 06:23:00,SystemResetWarning,0835.8,4.99,000.00,028.0,025.4,000.0,036.5,029.3,15.2,0000.0,0013.55,0003.71,0001.86
2023-09-08 06:24:00,SystemResetWarning,0835.8,5.00,000.00,028.0,025.7,000.0,036.4,029.4,15.3,0000.0,0013.34,0003.70,0001.88
2023-09-08 06:25:00,SystemResetWarning,0835.9,5.01,000.00,028.0,026.0,000.0,036.4,029.5,15.2,0000.0,0013.02,0003.66,0001.88
2023-09-08 06:26:00,SystemResetWarning,0835.9,5.01,000.00,028.0,026.2,000.0,036.4,029.5,15.2,0000.0,0012.91,0003.65,0001.87
2023-09-08 06:27:00,SystemResetWarning,0835.9,5.00,000.00,028.0,026.4,000.0,036.4,029.6,15.2,0000.0,0012.93,0003.61,0001.86
2023-09-08 06:28:00,SystemResetWarning,0835.9,5.00,000.00,028.0,026.6,000.0,036.5,029.6,15.2,0000.0,0013.48,0003.62,0001.86
2023-09-08 06:29:00,SystemResetWarning,0835.9,5.00,000.00,028.1,026.7,000.0,036.5,029.7,15.1,0000.0,0012.67,0003.65,0001.86
2023-09-08 06:30:00,SystemResetWarning,0835.9,5.00,000.00,028.1,026.8,000.0,036.5,029.7,15.1,0000.0,0012.05,0003.61,0001.86
2023-09-08 06:31:00,SystemResetWarning,0835.9,5.00,000.00,028.1,026.9,000.0,036.5,029.8,15.0,0000.0,0011.94,0003.55,0001.85
2023-09-08 06:32:00,SystemResetWarning,0835.9,5.00,000.00,028.2,027.0,000.0,036.5,029.8,15.0,0000.0,0011.39,0003.51,0001.83
2023-09-08 06:33:00,SystemResetWarning,0835.9,5.01,000.00,028.2,027.1,000.0,036.5,029.8,15.0,0000.0,0010.87,0003.50,0001.79
2023-09-08 06:34:00,SystemResetWarning,0835.9,5.00,000.00,028.2,027.1,000.0,036.6,029.9,15.0,0000.0,0010.43,0003.48,0001.77
2023-09-08 06:35:00,SystemResetWarning,0835.9,4.99,000.00,028.3,027.2,000.0,036.6,029.9,15.0,0000.0,0010.44,0003.48,0001.78
2023-09-08 06:36:00,SystemResetWarning,0835.9,5.00,000.00,028.3,027.2,000.0,036.6,030.0,15.0,0000.0,0010.40,0003.45,0001.78
2023-09-08 06:37:00,SystemResetWarning,0835.9,5.01,000.00,028.3,027.3,000.0,036.6,030.0,14.9,0000.0,0010.06,0003.40,0001.76
2023-09-08 06:38:00,SystemResetWarning,0835.9,5.00,000.00,028.4,027.3,000.0,036.7,030.0,14.9,0000.0,0011.02,0003.35,0001.76
2023-09-08 06:39:00,SystemResetWarning,0835.9,4.99,000.00,028.4,026.2,000.0,036.6,029.8,15.0,0000.0,0010.00,0003.30,0001.75
2023-09-08 06:40:00,SystemResetWarning,0835.9,4.99,000.00,028.2,024.7,000.0,036.6,029.4,15.0,0000.0,0009.74,0003.19,0001.74
2023-09-08 06:41:00,SystemResetWarning,0835.9,5.02,000.00,028.1,024.5,000.0,036.5,029.3,15.2,0000.0,0009.80,0003.18,0001.74
2023-09-08 06:42:00,SystemResetWarning,0835.9,5.00,000.00,028.0,024.7,000.0,036.5,029.2,15.4,0000.0,0009.93,0003.20,0001.74
2023-09-08 06:43:00,SystemResetWarning,0835.9,5.00,000.00,028.0,025.1,000.0,036.5,029.2,15.3,0000.0,0010.64,0003.19,0001.73
2023-09-08 06:44:00,SystemResetWarning,0835.9,5.00,000.00,028.0,025.4,000.0,036.5,029.3,15.3,0000.0,0010.65,0003.14,0001.74
2023-09-08 06:45:00,SystemResetWarning,0835.9,4.99,000.00,028.0,025.7,000.0,036.5,029.4,15.3,0000.0,0011.22,0003.15,0001.76
2023-09-08 06:46:00,SystemResetWarning,0835.9,5.00,000.00,028.0,026.0,000.0,036.5,029.5,15.2,0000.0,0011.34,0003.13,0001.73
2023-09-08 06:47:00,SystemResetWarning,0836.0,5.00,000.00,028.0,026.2,000.0,036.5,029.5,15.1,0000.0,0011.42,0003.15,0001.72
2023-09-08 06:48:00,SystemResetWarning,0836.0,5.00,000.00,028.0,026.4,000.0,036.5,029.6,15.0,0000.0,0011.74,0003.17,0001.72
2023-09-08 06:49:00,SystemResetWarning,0835.9,5.00,000.00,028.1,026.6,000.0,036.5,029.7,15.0,0000.0,0010.52,0003.15,0001.73
2023-09-08 06:50:00,SystemResetWarning,0835.9,5.00,000.00,028.1,026.7,000.0,036.5,029.7,15.0,0000.0,0010.73,0003.16,0001.72
2023-09-08 06:51:00,SystemResetWarning,0836.0,5.00,000.00,028.1,026.8,000.0,036.5,029.7,15.1,0000.0,0011.32,0003.15,0001.71
2023-09-08 06:52:00,SystemResetWarning,0835.9,5.00,000.00,028.1,027.0,000.0,036.5,029.8,15.2,0000.0,0011.20,0003.19,0001.71
2023-09-08 06:53:00,SystemResetWarning,0835.9,5.00,000.00,028.2,027.0,000.0,036.5,029.8,15.0,0000.0,0011.45,0003.21,0001.71
2023-09-08 06:54:00,SystemResetWarning,0836.0,5.01,000.00,028.2,027.1,000.0,036.5,029.8,15.1,0000.0,0011.04,0003.19,0001.71
2023-09-08 06:55:00,SystemResetWarning,0836.0,4.99,000.00,028.2,027.2,000.0,036.6,029.9,15.1,0000.0,0011.76,0003.20,0001.73
2023-09-08 06:56:00,SystemResetWarning,0836.1,5.00,000.00,028.3,027.3,000.0,036.6,029.9,15.1,0000.0,0012.37,0003.21,0001.72
2023-09-08 06:57:00,SystemResetWarning,0836.1,5.00,000.00,028.3,027.3,000.0,036.6,030.0,15.2,0000.0,0012.41,0003.19,0001.72
2023-09-08 06:58:00,SystemResetWarning,0836.1,5.01,000.00,028.4,027.4,000.0,036.6,030.0,15.1,0000.0,0013.38,0003.19,0001.72
2023-09-08 06:59:00,SystemResetWarning,0836.1,5.01,000.00,028.4,027.3,000.0,036.7,030.1,15.4,0000.0,0013.71,0003.20,0001.72
